Location: Berlín
(3.1342°N, 75.5814°W)
Time: 06:03:56
(UTC+00:00)

Daily predictions for brighter satellites

Satellite Brightness Start Highest point End
(mag) Time Altitude Azimuth Time Altitude Azimuth Time Altitude Azimuth
Sea Lan Dem Rocket 4.1 22:53:06 10° WSW 22:57:51 70° S 23:26:21 10° E
Sea Lan Dem Rocket 4.1 22:53:06 10° WSW 22:57:52 70° S 23:26:21 10° E
Ariane H10-3 1.8 22:56:51 10° WNW 22:59:08 59° N 23:05:07 10° E
Landsat 7 3.7 22:59:01 10° SSE 23:03:38 67° ENE 23:08:14 10° N
Cosmos 676 Rocket 4.1 22:59:27 10° S 23:04:45 84° ESE 23:10:03 10° NNE
SPOT 1/Viking Rocket 4.3 23:08:18 10° SE 23:12:41 29° ENE 23:17:04 10° NNE
NOSS 3-4 (A) 4.3 23:05:34 10° NNW 23:13:48 79° ENE 23:22:42 10° SSE
NOSS 3-4 (C) 4.3 23:05:40 10° NNW 23:13:53 78° ENE 23:22:45 10° SSE
ARIANE 5 R/B 0.6 23:09:44 10° W 23:14:15 80° S 23:16:16 10° E
CZ-2D R/B 3.6 23:13:25 10° S 23:16:32 54° W 23:19:37 10° NNW
Cosmos 1455 Rocket 4.2 23:15:12 10° SE 23:18:36 23° E 23:21:57 10° NE
Cosmos 1464 Rocket 4.2 23:12:52 10° S 23:19:14 81° W 23:25:33 10° N
Cosmos 371 Rocket 4.1 23:15:53 10° SSW 23:20:31 53° WNW 23:25:10 10° N
Cosmos 2151 Rocket 4.2 23:16:35 10° SSW 23:20:57 62° W 23:25:21 10° N
IRS-1C 4.4 23:15:51 10° S 23:21:09 73° WSW 23:26:26 10° NNW
SJ-6F 4.2 23:19:40 10° SSE 23:23:37 86° ENE 23:27:30 10° N
CZ-4 R/B 4.5 23:23:24 10° SSE 23:27:16 51° ENE 23:31:06 10° N
Cosmos 2297 4.0 23:22:48 10° S 23:28:16 46° ESE 23:33:42 10° NNE
Sich 1 Rocket 3.6 23:24:49 10° S 23:29:17 86° W 23:33:47 10° N
Meteor 2-12 Rocket 4.4 23:23:33 10° N 23:29:35 83° E 23:35:38 10° S
MOS 1 Rocket 2.9 23:25:45 10° SSE 23:30:02 80° E 23:34:16 10° N
Cosmos 2034 Rocket 3.9 23:25:08 10° S 23:31:17 79° E 23:37:26 10° N
Spot 4 Rocket 4.5 23:26:57 10° SE 23:31:37 37° ENE 23:36:16 10° N
Cosmos 2369 Rocket 2.3 23:26:52 10° S 23:32:16 52° ESE 23:37:40 10° NNE
USA 215 4.4 23:27:44 10° E 23:32:21 21° NE 23:36:55 10° N
Cosmos 968 Rocket 3.4 23:29:18 10° S 23:34:21 71° ESE 23:39:25 10° NNE
Okean 1 Rocket 3.4 23:32:02 10° S 23:36:27 69° W 23:40:50 10° N
ARIANE 5 DEB (SYLDA) 3.1 23:35:39 10° W 23:38:07 75° S 23:41:27 18° E
Cosmos 1741 Rocket 4.1 23:36:07 10° S 23:41:12 56° ESE 23:46:12 11° NNE
Ariane V96 H10-3 4.0 23:38:53 10° W 23:42:26 86° S 23:57:13 12° E
ATLAS 5 CENTAUR R/B 3.0 23:41:41 10° N 23:47:01 34° ENE 23:53:05 10° SE
Yuri Rocket 3.5 23:42:06 10° SW 23:47:13 52° SSE 23:49:24 27° E
Cosmos 332 Rocket 3.8 23:44:48 10° S 23:49:35 62° ESE 23:53:17 17° NNE
Cosmos 1602 2.9 23:49:10 10° N 23:52:13 88° E 23:55:16 10° S
ATLAS 5 CENTAUR R/B 3.0 23:50:53 10° S 23:52:57 15° SE 23:54:10 14° ESE
